Temp
-4 -4 -4 -4 -4 -4 -4 -4 -4 -4 -4 -4 -5 -5 -5 -5 -5 -5 -4 -4 -3 -2 -2 -2 -2 -2 -2
-5 -5 -5 -5 -6 -6 -5 -5 -5 -5 -5 -4 -4 -5 -5 -5 -5 -5 -5 -5 -4 -4 -3 -3 -3 -3 -2
-6 -6 -7 -7 -7 -6 -7 -7 -7 -6 -5 -5 -5 -5 -5 -4 -4 -4 -4 -4 -3 -3 -4 -4 -3 -3 -3
-8 -7 -7 -7 -8 -8 -8 -8 -8 -8 -5 -5 -5 -5 -5 -4 -4 -4 -4 -4 -4 -4 -4 -4 -4 -4 -4
-7 -7 -7 -8 -8 -8 -8 -8 -8 -8 -7 -7 -7 -7 -5 -5 -5 -4 -4 -4 -4 -5 -5 -5 -4 -4 -4
-7 -8 -8 -9 -9 -8 -8 -9 -9 -8 -8 -7 -7 -7 -7 -5 -5 -5 -5 -4 -4 -5 -5 -5 -5 -5 -5
-9 -9 -9 -9 -8 -9 -9 -9 -9 -8 -8 -8 -8 -7 -7 -7 -6 -5 -5 -5 -5 -6 -5 -5 -5 -5 -5
-8 -8 -9 -9 -9 -10 -10 -10 -9 -9 -9 -8 -8 -7 -7 -7 -6 -6 -5 -5 -5 -5 -5 -5 -5 -5 -4
-8 -8 -8 -8 -9 -10 -10 -10 -10 -10 -9 -9 -8 -8 -7 -7 -6 -6 -6 -6 -6 -6 -6 -5 -5 -5 -4
-9 -8 -8 -8 -8 -10 -11 -11 -11 -11 -10 -10 -9 -9 -8 -7 -7 -6 -6 -6 -6 -6 -6 -5 -5 -5 -5
-9 -9 -9 -9 -9 -9 -10 -11 -11 -11 -9 -11 -10 -10 -9 -9 -8 -8 -7 -6 -6 -6 -5 -6 -5 -5 -5
-9 -11 -10 -10 -10 -10 -9 -10 -10 -10 -10 -10 -11 -11 -10 -9 -9 -8 -8 -7 -8 -6 -6 -6 -6 -5 -5
-11 -10 -10 -10 -10 -10 -10 -10 -9 -9 -9 -10 -11 -11 -10 -10 -9 -8 -8 -8 -8 -8 -7 -6 -6 -6 -6
-11 -11 -10 -10 -10 -10 -10 -10 -12 -10 -9 -9 -10 -11 -11 -10 -9 -9 -8 -8 -8 -8 -6 -6 -6 -6 -6
-12 -11 -11 -11 -10 -10 -10 -11 -12 -11 -10 -9 -9 -10 -10 -10 -10 -9 -8 -8 -7 -7 -7 -7 -7 -6 -6
-11 -11 -11 -11 -11 -10 -10 -11 -12 -11 -11 -10 -10 -10 -10 -9 -9 -9 -8 -8 -7 -7 -8 -7 -7 -6 -6
-11 -11 -11 -11 -11 -11 -11 -11 -12 -12 -11 -11 -11 -11 -11 -11 -9 -9 -9 -8 -8 -7 -8 -8 -8 -7 -7
Height
1523 1519 1514 1509 1506 1503 1499 1496 1492 1490 1486 1484 1481 1479 1476 1474 1471 1468 1467 1466 1465 1464 1464 1464 1464 1463 1461
1517 1512 1508 1503 1500 1496 1493 1489 1486 1482 1480 1478 1475 1472 1469 1467 1464 1462 1459 1457 1456 1456 1456 1455 1456 1455 1454
1510 1508 1504 1500 1495 1493 1489 1484 1481 1479 1474 1469 1467 1465 1462 1460 1458 1455 1453 1450 1449 1447 1447 1448 1448 1447 1447
1508 1504 1500 1495 1492 1486 1479 1479 1473 1470 1468 1464 1461 1458 1456 1453 1451 1448 1446 1444 1442 1441 1440 1440 1439 1439 1438
1505 1500 1495 1491 1487 1482 1477 1471 1468 1465 1458 1457 1453 1451 1448 1445 1443 1441 1439 1437 1435 1434 1433 1433 1432 1431 1430
1502 1497 1492 1487 1482 1480 1476 1469 1459 1459 1453 1448 1448 1443 1440 1437 1435 1433 1432 1430 1428 1427 1426 1425 1424 1423 1422
1497 1493 1487 1484 1479 1474 1470 1464 1457 1451 1448 1441 1440 1436 1433 1429 1428 1426 1424 1423 1421 1419 1418 1417 1415 1414 1413
1493 1489 1486 1482 1475 1470 1463 1456 1451 1447 1444 1435 1434 1429 1426 1423 1421 1419 1417 1416 1414 1412 1410 1410 1408 1407 1405
1488 1485 1480 1476 1469 1464 1457 1451 1444 1441 1437 1431 1427 1421 1418 1414 1413 1412 1412 1410 1408 1406 1404 1403 1401 1400 1398
1481 1477 1475 1470 1464 1459 1453 1447 1442 1434 1433 1428 1421 1419 1410 1410 1408 1407 1405 1403 1401 1400 1398 1396 1395 1393 1393
1474 1470 1466 1462 1459 1455 1450 1444 1437 1431 1427 1424 1417 1414 1412 1403 1402 1401 1398 1396 1394 1392 1391 1390 1389 1388 1387
1468 1466 1461 1457 1454 1449 1443 1438 1433 1426 1421 1419 1413 1410 1405 1398 1393 1393 1392 1389 1387 1385 1384 1382 1382 1382 1381
1464 1460 1457 1453 1448 1441 1436 1431 1425 1420 1416 1412 1407 1403 1399 1393 1388 1386 1384 1382 1381 1379 1378 1376 1375 1374 1374
1460 1456 1451 1447 1442 1436 1429 1423 1417 1411 1409 1405 1401 1397 1391 1388 1383 1379 1379 1377 1375 1373 1372 1370 1369 1368 1367
1456 1451 1446 1442 1437 1432 1425 1419 1413 1406 1400 1397 1394 1390 1385 1381 1375 1373 1371 1369 1368 1367 1366 1363 1362 1361 1359
1452 1447 1442 1437 1432 1426 1421 1415 1408 1401 1395 1390 1385 1380 1375 1371 1369 1366 1365 1363 1362 1361 1359 1357 1354 1354 1354
1448 1443 1439 1434 1428 1421 1416 1409 1403 1397 1390 1385 1381 1376 1370 1365 1362 1361 1359 1358 1356 1354 1353 1351 1348 1347 1347
Wind_Speed
32 33 34 32 30 27 29 25 23 23 24 24 24 23 23 22 22 22 22 23 22 23 26 26 26 25 24
33 33 32 32 32 32 30 28 29 27 24 25 25 22 21 22 21 22 22 23 24 25 24 27 26 26 27
34 31 27 27 33 34 29 28 27 27 25 22 21 21 20 18 20 20 21 23 25 25 28 28 27 29 27
26 28 30 28 29 35 35 32 30 28 26 24 18 20 21 21 22 22 22 23 24 25 25 26 29 29 27
29 32 24 37 31 31 36 36 35 30 30 23 26 27 24 22 21 21 24 23 24 23 23 25 26 27 27
28 31 30 28 30 33 32 37 40 24 28 35 30 30 27 26 20 21 22 23 24 25 25 27 26 27 27
25 24 29 28 33 35 36 33 35 35 30 34 26 27 28 25 24 20 20 22 22 23 23 24 25 26 27
23 27 28 31 31 30 32 31 31 27 23 32 28 29 25 27 23 20 20 18 19 22 22 20 23 24 25
25 28 28 28 25 26 28 28 28 26 27 23 24 32 31 28 24 19 16 16 21 21 20 23 24 24 20
32 28 25 24 23 22 23 26 29 30 18 27 30 30 29 24 16 29 29 25 20 21 22 23 21 20 19
28 26 23 22 24 23 22 22 27 30 31 26 31 30 28 36 27 28 29 28 25 22 19 19 18 19 19
24 22 26 24 25 24 25 25 24 27 29 25 28 27 30 34 35 29 25 27 26 23 19 20 20 20 22
23 25 24 24 26 27 29 28 28 26 25 24 24 26 26 30 33 31 29 27 26 23 17 15 16 19 22
23 24 24 26 28 30 31 32 29 32 26 25 24 23 25 25 29 31 27 27 26 25 23 18 20 21 22
24 25 25 27 29 30 32 34 30 35 36 29 25 25 25 25 28 28 26 25 24 22 18 22 21 21 21
24 26 24 28 31 32 33 34 32 38 37 32 32 31 30 26 21 21 20 20 19 19 18 22 25 22 18
24 26 25 28 31 33 37 37 34 39 37 33 29 27 29 27 26 20 19 16 20 20 19 21 25 25 22
Wind_Direction
312 318 320 320 321 326 325 323 315 302 301 300 302 302 299 298 297 296 290 285 279 276 274 271 277 281 282
315 319 319 326 328 324 323 320 318 316 314 307 294 297 299 298 299 297 295 289 285 274 276 273 271 275 279
315 320 322 322 323 324 319 313 314 317 319 317 306 295 296 300 301 303 302 296 292 290 269 269 274 277 278
315 317 321 323 318 320 319 318 315 313 316 316 311 306 295 291 294 293 300 300 295 288 282 273 272 277 276
315 321 314 316 318 321 320 318 316 318 314 306 310 310 309 303 295 295 298 296 293 289 281 275 275 276 276
311 307 310 314 322 320 314 311 312 319 310 305 303 302 307 313 302 296 297 294 290 288 287 276 273 275 275
309 310 314 319 315 309 307 308 307 312 313 309 308 301 310 308 306 297 300 298 289 287 283 281 279 275 274
311 315 312 305 303 300 304 304 304 309 311 302 306 304 310 310 310 308 303 294 293 290 283 283 289 285 274
314 314 313 312 310 307 307 314 312 312 318 312 309 306 313 309 312 314 310 289 296 291 282 283 293 291 275
313 313 314 320 327 324 315 311 312 315 311 316 315 312 308 302 297 303 307 302 292 289 281 284 289 288 273
313 319 324 325 329 329 325 316 313 304 314 311 309 306 298 295 296 301 302 303 298 295 283 277 279 273 271
320 321 328 328 329 328 330 325 317 308 310 310 305 304 298 293 292 298 297 298 299 295 291 281 271 272 266
323 323 327 329 330 335 334 329 321 321 323 318 310 308 298 290 287 291 291 293 292 293 298 291 283 271 267
325 326 329 336 336 340 337 337 329 329 329 327 324 317 306 292 283 285 283 282 291 295 298 281 280 279 272
328 332 332 335 337 341 341 338 332 331 331 329 327 320 312 301 284 275 286 288 291 296 287 286 283 284 277
331 334 332 336 336 339 339 340 331 331 329 329 330 326 321 312 299 286 286 290 295 291 283 277 279 283 290
334 336 332 332 335 336 340 340 327 327 328 326 322 321 311 301 309 289 284 286 293 293 287 275 279 282 284